Hourly Data Report for September 01, 2017

All times are specified in Local Standard Time (LST). Add 1 hour to adjust for Daylight Saving Time where and when it is observed.

EDMUNDSTON
NEW BRUNSWICK

47°25'00.000" N
68°19'28.040" W
154.20 m
8101303
71590
ERM

Download Data

Hourly Data (September 2017)
Hourly Data Report for September 1, 2017
Temp Definition
°C
Dew Point Temp Definition
°C
Rel Hum Definition
%
Wind Dir Definition
10's deg

Wind Spd Definition
km/h
Visibility Definition
km
Stn Press Definition
kPa
Hmdx Definition


Wind Chill Definition


Weather Definition


TIME
00:00 9.8 8.4 91 31 8   98.85     LegendNANA
01:00 8.3 6.5 88 31 11   98.87     LegendNANA
02:00 7.7 6.5 92 32 6   98.84     LegendNANA
03:00 7.4 6.5 94 28 2   98.78     LegendNANA
04:00 7.7 6.4 91 31 4   98.75     LegendNANA
05:00 7.1 5.4 89 27 4   98.73     LegendNANA
06:00 7.0 5.0 87 29 7   98.73     LegendNANA
07:00 7.6 5.1 85 27 8   98.72     LegendNANA
08:00 7.9 4.6 80 27 14   98.71     LegendNANA
09:00 7.7 4.9 83 27 11   98.71     LegendNANA
10:00 7.9 4.6 80 29 16   98.71     LegendNANA
11:00 7.5 5.8 89 31 9   98.76     LegendNANA
12:00 8.1 6.3 89 31 13   98.79     LegendNANA
13:00 8.7 6.6 87 30 17   98.87     LegendNANA
14:00 9.1 6.5 84 30 18   98.91     LegendNANA
15:00 9.5 6.4 81 30 15   98.99     LegendNANA
16:00 8.9 6.7 86 31 14   99.11     LegendNANA
17:00 8.8 7.2 90 31 10   99.24     LegendNANA
18:00 8.8 7.2 90 30 10   99.32     LegendNANA
19:00 8.5 6.8 89 32 13   99.42     LegendNANA
20:00 8.2 6.0 86 31 11   99.49     LegendNANA
21:00 7.8 5.4 85 32 11   99.53     LegendNANA
22:00 7.7 5.6 87 31 7   99.57     LegendNANA
23:00 7.8 5.9 88 30 5   99.62     LegendNANA

Notes on Data Quality.

Legend

  • E = Estimated
  • M = Missing
  • NA = Not Available
  • ‡ = Partner data that is not subject to review by the National Climate Archives
Date modified: